Tracking 35334 objects as of 13-Sep-2026
HD Live streaming from Space Station
objects crossing your sky now

COSMOS 1408 DEB


COSMOS 1408 DEB is no longer on orbit


NORAD ID: 52924
Int'l Code: 1982-092CAV
Launch date: September 16, 1982
Source: Commonwealth of Independent States (former USSR) (CIS)
Launch site: PLESETSK MISSILE AND SPACE COMPLEX (PKMTR)
Decay date: 2023-07-07

Note: This is SATELLITE DEBRIS
Your satellite tracking list
Your tracking list is empty




NASA's NSSDC Master Catalog

Two Line Element Set (TLE):
1 52924U 82092CAV 22302.30126279  .00071606  00000-0  32927-2 0  9997
2 52924  82.5458 151.5912 0148616 310.3249  48.5073 15.10678589 24988
Source of the keplerian elements: AFSPC